DW7764 Weather Reports


time (UTC)temp
C
wind
direction
speed
KPH
gust
KPH
rain 1hr
cm
rain 24hr
cm
rain mn
cm
humidity
%
barometer
mb
20260504081505 18 276 1.6 9.7 0.00 0.00 0.00 73 1017.1
20260504044526 13 325 0.0 0.0 0.00 0.00 0.00 94 1017.8
20260504043028 13 325 0.0 1.6 0.00 0.00 0.00 95 1017.8
20260504041527 13 325 0.0 0.0 0.00 0.00 0.00 95 1017.8
20260504040024 13 324 0.0 0.0 0.00 0.00 0.00 95 1017.8
20260504034523 13 325 0.0 0.0 0.00 0.00 0.00 95 1017.9
20260504033022 13 325 0.0 0.0 0.00 0.00 0.00 95 1018.0
20260504031521 13 325 0.0 0.0 0.00 0.00 0.00 94 1017.9
20260504030021 13 325 0.0 0.0 0.00 0.00 0.00 95 1018.2
20260504024520 13 325 0.0 0.0 0.00 0.00 0.00 95 1018.0
20260504023019 13 325 0.0 0.0 0.00 0.00 0.00 95 1018.0
20260504021518 13 325 0.0 0.0 0.00 0.00 0.00 94 1017.9
20260504020029 13 325 0.0 0.0 0.00 0.00 0.00 95 1018.2
20260504014515 13 325 0.0 0.0 0.00 0.00 0.00 94 1018.3
20260504013019 13 325 0.0 0.0 0.00 0.00 0.00 93 1018.3
20260504011512 13 325 0.0 0.0 0.00 0.00 0.00 94 1018.5
20260504010012 13 325 0.0 0.0 0.00 0.00 0.00 94 1018.5
20260504004524 13 325 0.0 0.0 0.00 0.00 0.00 94 1018.7
20260504003007 13 325 0.0 0.0 0.00 0.00 0.00 94 1019.0
20260504001521 13 324 0.0 0.0 0.00 0.00 0.00 94 1018.9
20260504000006 13 325 0.0 1.6 0.00 0.00 0.00 94 1019.0
20260503234507 13 325 0.0 0.0 0.00 0.00 0.00 94 1019.0
20260503233005 13 325 0.0 0.0 0.00 0.00 0.00 94 1019.1
20260503231503 13 325 0.0 0.0 0.00 0.00 0.00 94 1019.2
20260503230002 13 325 0.0 0.0 0.00 0.00 0.00 94 1019.3
20260503224614 13 325 0.0 0.0 0.00 0.00 0.00 94 1019.2
20260503223112 13 325 0.0 0.0 0.00 0.00 0.00 94 1019.3
20260503221558 13 325 0.0 0.0 0.00 0.00 0.00 94 1019.3
20260503220057 13 325 0.0 0.0 0.00 0.00 0.00 94 1019.2
20260503214558 13 13 0.0 3.2 0.00 0.00 0.00 94 1019.2
20260503213056 14 336 0.0 4.8 0.00 0.00 0.00 94 1019.4
20260503211552 14 152 0.0 3.2 0.00 0.00 0.00 92 1019.4
20260503210050 15 152 0.0 1.6 0.00 0.00 0.00 91 1019.6
20260503204550 15 152 0.0 3.2 0.00 0.00 0.00 90 1019.5
20260503203049 15 153 0.0 0.0 0.00 0.00 0.00 89 1019.4
20260503201551 15 152 0.0 0.0 0.00 0.00 0.00 89 1019.6
20260503200048 15 153 0.0 1.6 0.00 0.00 0.00 90 1019.5
20260503194558 15 153 0.0 0.0 0.00 0.00 0.00 91 1019.4
20260503193147 15 152 0.0 1.6 0.00 0.00 0.00 91 1019.2
20260503191551 15 152 0.0 1.6 0.00 0.00 0.00 90 1019.1
20260503190047 15 152 0.0 1.6 0.00 0.00 0.00 90 1019.0
20260503184544 15 100 0.0 4.8 0.00 0.00 0.00 90 1019.1
20260503183052 15 113 0.0 3.2 0.00 0.00 0.00 89 1019.1
20260503181557 15 133 0.0 4.8 0.00 0.00 0.00 86 1019.0
20260503180048 16 132 0.0 6.4 0.00 0.00 0.00 83 1019.0
20260503174547 16 143 0.0 3.2 0.00 0.00 0.00 81 1019.0
20260503173042 16 119 3.2 4.8 0.00 0.00 0.00 80 1018.7
20260503171540 16 115 1.6 8.0 0.00 0.00 0.00 77 1018.7